[[{"header":{"parameterUnit":"m.s-1","parameterCategory":1,"la1":30.2991,"la2":30.254,"lo1":-89.0895,"lo2":-89.0444,"dy":0.0017,"dx":0.0017,"nx":28,"ny":28,"refTime":"2024-06-03T21:00:00:Z","depth":0,"parameterNumber":2,"parameterNumberName":"U-component_of_WINDS"},"data":[0,0,0,0,0,0,0,0,0,0,0,0,0,0,0,0,0,0,0,0,0,0,0,0,0,0,0,0,0,0,0,0,0,0,0,0,0,0,0,0,0,0,0,0,0,0,0,0,0,0,0,0,0,0,0,0,0,0,1.0923,1.0923,0,1.0922,1.0922,1.0922,1.0915,1.0915,1.0914,1.0914,1.0911,1.0911,1.0911,0,0,0,0,0,0,0,0,0,0,0,0,0,1.0918,1.0918,1.0923,1.0923,1.0923,1.0922,1.0922,1.0922,1.0915,1.0914,1.0914,1.0914,1.0911,1.0911,1.0911,0,0,0,0,0,0,0,0,0,0,0,0,0,1.0918,1.0918,1.0923,1.092,1.0919,1.0922,1.0922,1.0922,1.0915,1.0914,1.0914,1.0914,1.0911,1.0911,1.0911,1.0917,0,0,1.0912,1.0912,0,0,0,0,0,0,0,0,1.0918,1.0919,1.092,1.092,1.092,1.0918,1.0919,1.092,1.0915,1.0916,1.0914,1.0914,1.0914,1.0914,1.0914,1.0917,1.0916,1.0912,1.0912,1.0912,1.0912,0,0,0,0,0,0,0,1.0918,1.0919,1.0923,1.092,1.092,1.0917,1.0917,1.0919,1.0916,1.0916,1.0916,1.0916,1.0913,1.0914,1.0914,1.0916,1.0912,1.0912,1.0912,1.0912,1.0921,1.0921,0,0,0,0,0,0,1.0919,1.0919,1.0923,1.0923,1.0918,1.0917,1.0917,1.0919,1.0916,1.0916,1.0916,1.0915,1.0914,1.0913,1.0913,1.0918,1.0912,1.0912,1.0912,1.0921,1.0921,1.0921,0,0,0,0,0,0,1.0919,1.092,1.0923,1.092,1.0921,1.0918,1.092,1.0919,1.0919,1.0916,1.0915,1.0917,1.0913,1.0913,1.0916,1.0918,1.0912,1.0912,1.0921,1.0921,1.0921,1.0928,0,0,0,0,0,0,1.0919,1.092,1.0922,1.0921,1.0921,1.0926,1.092,1.0919,1.0919,1.0919,1.0917,1.0916,1.0913,1.0915,1.0916,1.0918,1.0912,1.092,1.0921,1.0921,1.0928,1.0929,1.093,0,0,0,0,0,1.0919,1.0925,1.0923,1.0923,1.0924,1.0926,1.0926,1.0923,1.092,1.0922,1.0919,1.0916,1.0918,1.0916,1.0916,1.0918,1.092,1.0921,1.0921,1.0928,1.0929,1.093,0,0,0,0,0,0,1.0927,1.0925,1.0922,1.0928,1.0927,1.0925,1.0928,1.0925,1.0924,1.0924,1.0919,1.0919,1.0921,1.092,1.0918,1.0922,1.0918,1.0919,1.0923,1.0924,1.0925,1.0925,1.0912,0,0,0,0,0,1.093,1.0932,1.0929,1.0934,1.0934,1.0931,1.0931,1.0929,1.0928,1.0927,1.0925,1.0924,1.0924,1.0924,1.0924,1.0928,1.0926,1.0929,1.093,1.0931,1.0931,1.0931,1.0932,1.0923,1.0923,1.0923,0,0,1.0935,1.0934,1.0935,1.0936,1.0935,1.0936,1.0931,1.0933,1.0933,1.0928,1.0929,1.0928,1.0925,1.0928,1.0929,1.0927,1.0933,1.0931,1.0932,1.0932,1.0932,1.0933,1.0933,1.0923,1.0923,1.0923,0,0,1.0945,1.0945,1.0948,1.0947,1.0946,1.0943,1.0944,1.0942,1.094,1.0942,1.0937,1.0937,1.0938,1.0936,1.0935,1.0942,1.0938,1.0942,1.0946,1.0946,1.0947,1.0948,1.0949,1.095,1.0942,1.0942,1.0942,0,1.0951,1.0954,1.095,1.0952,1.0952,1.0946,1.0949,1.0948,1.0946,1.0946,1.0943,1.0943,1.0941,1.0942,1.0944,1.0943,1.0943,1.0942,1.0947,1.0948,1.0949,1.095,1.095,1.0942,1.0942,1.0942,1.0942,0,1.0961,1.0963,1.0965,1.0964,1.0964,1.0966,1.0961,1.0962,1.0958,1.0956,1.0956,1.0954,1.0953,1.0953,1.095,1.0953,1.0951,1.0948,1.0944,1.095,1.0951,1.0951,1.0943,1.0943,1.0943,1.0943,0,0,1.0977,1.0972,1.0973,1.0972,1.0969,1.0969,1.097,1.0969,1.0968,1.0967,1.0967,1.0967,1.0963,1.0962,1.0959,1.0959,1.0963,1.0956,1.0956,1.0956,1.0964,1.0966,1.0967,1.096,1.096,1.0961,1.0964,0,1.0986,1.0988,1.0984,1.0987,1.0987,1.0981,1.0981,1.0979,1.0976,1.0975,1.0972,1.0971,1.0967,1.0966,1.0966,1.0963,1.0964,1.0962,1.0959,1.0959,1.096,1.0968,1.097,1.0974,1.0965,1.0965,1.0965,0,1.0997,1.0995,1.0998,1.0993,1.0993,1.0994,1.0991,1.0991,1.0987,1.0985,1.0983,1.0978,1.0978,1.0974,1.0972,1.0971,1.0969,1.0967,1.0967,1.0967,1.0962,1.0967,1.0975,1.0976,1.0966,1.0966,1.0965,0,1.1007,1.1005,1.1006,1.1005,1.1,1.1,1.0998,1.0994,1.0993,1.099,1.0989,1.0986,1.0985,1.0982,1.0977,1.0975,1.0976,1.0972,1.0973,1.0973,1.0973,1.0973,1.0981,1.0973,1.0973,1.0973,1.0973,0,1.1016,1.1018,1.101,1.1011,1.1012,1.1007,1.1007,1.1004,1.1001,1.1,1.0994,1.0993,1.0987,1.0985,1.0981,1.0979,1.0979,1.0976,1.0975,1.0976,1.0976,1.0975,1.0974,1.0973,1.0973,1.0973,1.0973,0,1.1028,1.1023,1.1024,1.1018,1.1016,1.1017,1.1012,1.1012,1.1008,1.1007,1.1006,1.1,1.0997,1.0991,1.0987,1.0984,1.0983,1.0982,1.0985,1.0984,1.0985,1.0985,1.0992,1.0992,1.0984,1.0984,1.0985,0,1.1034,1.1035,1.1029,1.1028,1.1026,1.1024,1.1023,1.1017,1.1015,1.101,1.101,1.1007,1.1004,1.0999,1.0994,1.099,1.0988,1.0991,1.0987,1.0988,1.0987,1.0987,1.0986,1.0991,1.0992,1.0992,1.0992,0,1.1045,1.1042,1.104,1.1037,1.1035,1.1033,1.1029,1.1029,1.1022,1.102,1.1017,1.1014,1.101,1.1006,1.1001,1.0998,1.0993,1.0993,1.0993,1.0994,1.0995,1.0994,1.0986,1.0993,1.0992,1.0992,1.0992,1.0992,1.1053,1.1053,1.1049,1.1046,1.1043,1.104,1.1039,1.1034,1.1032,1.1027,1.1024,1.1021,1.1015,1.1008,1.1005,1.1002,1.1,1.1,1.1,1.1,1.1,1.0996,1.1001,1.1001,1.1001,1.1001,1.1001,0,1.1063,1.106,1.1058,1.1053,1.1051,1.1046,1.1042,1.104,1.1038,1.1033,1.103,1.1026,1.1022,1.1016,1.1011,1.101,1.1007,1.1008,1.1008,1.1007,1.1003,1.1003,1.101,1.101,1.101,1.101,1.101,1.101,1.1068,1.1067,1.1064,1.1061,1.1057,1.1054,1.1051,1.1048,1.1044,1.104,1.1036,1.1032,1.1027,1.1021,1.1017,1.1015,1.1014,1.1015,1.1013,1.1009,1.1008,1.1007,1.1007,1.1015,1.1015,1.1017,1.1017,1.1017]},{"header":{"parameterUnit":"m.s-1","parameterCategory":1,"la1":30.2991,"la2":30.254,"lo1":-89.0895,"lo2":-89.0444,"dy":0.0017,"dx":0.0017,"nx":28,"ny":28,"refTime":"2024-06-03T21:00:00:Z","depth":0,"parameterNumber":3,"parameterNumberName":"V-component_of_WINDS"},"data":[0,0,0,0,0,0,0,0,0,0,0,0,0,0,0,0,0,0,0,0,0,0,0,0,0,0,0,0,0,0,0,0,0,0,0,0,0,0,0,0,0,0,0,0,0,0,0,0,0,0,0,0,0,0,0,0,0,0,5.7523,5.7523,0,5.7595,5.7596,5.7596,5.748,5.7476,5.7473,5.7469,5.7542,5.7548,5.7553,0,0,0,0,0,0,0,0,0,0,0,0,0,5.7284,5.7289,5.7523,5.7524,5.7524,5.7595,5.7596,5.7597,5.7481,5.7476,5.7471,5.7467,5.754,5.7547,5.7554,0,0,0,0,0,0,0,0,0,0,0,0,0,5.7375,5.7291,5.7522,5.7475,5.7472,5.7594,5.7596,5.7597,5.7482,5.7476,5.747,5.7465,5.7538,5.7547,5.7555,5.7727,0,0,5.7581,5.7585,0,0,0,0,0,0,0,0,5.737,5.7384,5.7481,5.7479,5.7475,5.7522,5.7538,5.7641,5.7484,5.7478,5.7469,5.7462,5.7541,5.7548,5.7575,5.773,5.7734,5.7582,5.7587,5.759,5.7593,0,0,0,0,0,0,0,5.7364,5.738,5.7551,5.7483,5.7479,5.745,5.7457,5.7557,5.7542,5.7478,5.747,5.748,5.7538,5.7567,5.7576,5.7735,5.7581,5.7589,5.7594,5.7598,5.8034,5.8041,0,0,0,0,0,0,5.7364,5.7376,5.7549,5.7553,5.7407,5.7459,5.7466,5.7513,5.7541,5.7539,5.7485,5.7474,5.7556,5.7566,5.7578,5.7782,5.759,5.7598,5.7603,5.8028,5.8036,5.8043,0,0,0,0,0,0,5.7359,5.738,5.7546,5.7462,5.7481,5.747,5.7523,5.7518,5.7547,5.7546,5.7542,5.7518,5.7551,5.7566,5.7691,5.7782,5.7602,5.761,5.802,5.803,5.8039,5.819,0,0,0,0,0,0,5.7353,5.7379,5.7445,5.7465,5.7486,5.7658,5.7529,5.7524,5.7562,5.7549,5.7576,5.7575,5.7548,5.7679,5.7699,5.7791,5.7617,5.8012,5.8025,5.8036,5.8177,5.8204,5.8227,0,0,0,0,0,5.7345,5.7484,5.7449,5.747,5.7568,5.7664,5.7676,5.7642,5.757,5.7636,5.7635,5.7574,5.7769,5.7693,5.7715,5.781,5.8006,5.8021,5.8035,5.8166,5.8198,5.8226,0,0,0,0,0,0,5.7475,5.7486,5.7447,5.7597,5.763,5.7644,5.7726,5.7678,5.7732,5.7718,5.7673,5.768,5.7814,5.7824,5.7739,5.7978,5.7875,5.7895,5.7967,5.7998,5.8023,5.8018,5.7624,0,0,0,0,0,5.7522,5.7599,5.7604,5.7736,5.7755,5.7738,5.7778,5.7749,5.7782,5.7795,5.7803,5.7837,5.7906,5.7952,5.8015,5.8177,5.8182,5.8254,5.8279,5.8299,5.8317,5.8404,5.8436,5.8091,5.8091,5.8091,0,0,5.7618,5.7634,5.7685,5.7763,5.7785,5.7866,5.775,5.784,5.79,5.7809,5.7927,5.7935,5.7969,5.8113,5.8177,5.8126,5.8413,5.8318,5.8334,5.8341,5.8422,5.8455,5.8484,5.8101,5.8099,5.8097,0,0,5.7836,5.7855,5.7967,5.7992,5.8027,5.8015,5.8042,5.8063,5.8064,5.8182,5.8116,5.8185,5.8305,5.8333,5.8362,5.859,5.8536,5.8612,5.8742,5.8827,5.8855,5.8878,5.896,5.899,5.8629,5.863,5.863,0,5.7951,5.807,5.8031,5.8126,5.8162,5.8083,5.8197,5.8222,5.8277,5.8304,5.8245,5.8394,5.8411,5.8561,5.8617,5.8643,5.8673,5.8609,5.8854,5.8877,5.8899,5.8977,5.9008,5.8639,5.8638,5.8637,5.8636,0,5.8211,5.8295,5.8381,5.8436,5.8481,5.8585,5.8562,5.8612,5.8579,5.8573,5.8695,5.8713,5.8779,5.8812,5.878,5.8957,5.8925,5.8861,5.8757,5.8942,5.9014,5.9043,5.8652,5.8648,5.8646,5.8643,0,0,5.8514,5.8545,5.8578,5.8601,5.8634,5.8698,5.8798,5.8862,5.8907,5.8947,5.903,5.9133,5.9074,5.9108,5.9079,5.9153,5.9333,5.908,5.908,5.9127,5.953,5.9579,5.9614,5.9297,5.9302,5.9307,5.9527,0,5.8731,5.8904,5.8871,5.904,5.9117,5.9042,5.9129,5.9159,5.9156,5.9221,5.9216,5.9291,5.9207,5.9227,5.9297,5.9297,5.9414,5.928,5.9374,5.9378,5.9369,5.9651,5.9703,5.991,5.9555,5.956,5.9563,0,5.9007,5.9058,5.9234,5.9255,5.9286,5.9365,5.9421,5.9484,5.9516,5.9508,5.9546,5.9503,5.9602,5.9497,5.9633,5.9543,5.9579,5.9585,5.9592,5.96,5.9483,5.9668,5.9975,6.0007,5.9607,5.9604,5.96,0,5.9211,5.9323,5.9443,5.9466,5.9493,5.955,5.9564,5.959,5.9631,5.968,5.9706,5.9766,5.9799,5.9847,5.9821,5.9746,5.9962,5.9854,5.9959,5.996,6.0009,6.0007,6.0327,6.0031,6.0031,6.003,6.003,0,5.9457,5.9569,5.9535,5.961,5.9732,5.9693,5.9815,5.982,5.9844,5.9917,5.9856,5.9927,5.9888,5.9955,5.9935,6.0052,6.0067,6.0064,6.0058,6.007,6.0071,6.0094,6.008,6.0038,6.0037,6.0035,6.0034,0,5.9706,5.9689,5.9815,5.983,5.9836,5.9926,5.9939,6.0008,6.0,6.0094,6.0114,6.0101,6.0178,6.0156,6.0239,6.0225,6.0373,6.0348,6.0363,6.0357,6.0464,6.0454,6.0812,6.0857,6.0531,6.0534,6.0536,0,5.9865,5.9949,5.9973,6.0018,6.0037,6.011,6.0151,6.0116,6.0161,6.0204,6.0269,6.0339,6.0394,6.052,6.0518,6.0581,6.0557,6.0678,6.0566,6.0577,6.056,6.0556,6.0565,6.0701,6.0705,6.0708,6.071,0,6.0149,6.0136,6.0198,6.0258,6.0309,6.0354,6.0393,6.0433,6.04,6.0455,6.0532,6.0575,6.0659,6.0731,6.0788,6.0802,6.0752,6.0745,6.0773,6.0787,6.0793,6.0792,6.0425,6.0737,6.0735,6.0733,6.0731,6.073,6.0358,6.0429,6.0458,6.0529,6.0555,6.0593,6.0659,6.0659,6.0723,6.0789,6.0764,6.0853,6.0883,6.0955,6.0976,6.1045,6.0999,6.1039,6.1049,6.106,6.1074,6.0781,6.1055,6.1054,6.1054,6.1053,6.1052,0,6.064,6.0654,6.072,6.0777,6.0833,6.078,6.0821,6.0871,6.0951,6.0982,6.1038,6.1127,6.1196,6.12,6.1264,6.1319,6.1297,6.1337,6.1333,6.1338,6.1111,6.1081,6.1354,6.1353,6.1353,6.1353,6.1353,6.1353,6.0793,6.0911,6.0901,6.1031,6.1044,6.1131,6.1159,6.1194,6.122,6.1322,6.1379,6.1381,6.1402,6.1467,6.1528,6.1527,6.1555,6.1604,6.1595,6.1383,6.1353,6.1325,6.1296,6.161,6.161,6.1815,6.1817,6.1818]}]]